When you browse on this site, cookies collect data to enhance your experience and personalize the content and advertising you see.
Visit our Privacy Policy to learn more. By continuing to use the site, you agree to this use of cookies and data.
  • In Romania
  • List of Countries
  • For 7 days
  • Water Temperature
  • Satellite Maps
  • Weather Map
  • Weather Widgets
  • user-avatar
    Login

    Hourly Weather Seohara

    Today, 16 July, Tuesday

    Time Temperature Precipitation Wind Pressure Humidity
    00:00 +29°C° 1 mm 3 mps 731 mmHg 84%
    01:00 +28°C° 1 mm 3 mps 730 mmHg 85%
    02:00 +28°C° 1 mm 2 mps 730 mmHg 87%
    03:00 +27°C° 1.8 mm 2 mps 730 mmHg 88%
    04:00 +27°C° 1.8 mm 2 mps 730 mmHg 88%
    05:00 +27°C° 0 mm 2 mps 731 mmHg 85%
    06:00 +28°C° 0.1 mm 2 mps 731 mmHg 84%
    07:00 +28°C° 0.1 mm 2 mps 732 mmHg 83%
    08:00 +28°C° 0.1 mm 3 mps 732 mmHg 82%
    09:00 +30°C° 0.1 mm 3 mps 732 mmHg 74%
    10:00 +33°C° 0.1 mm 3 mps 733 mmHg 67%
    11:00 +35°C° 0 mm 3 mps 733 mmHg 57%
    12:00 +36°C° 0.1 mm 3 mps 733 mmHg 54%
    13:00 +36°C° 0.1 mm 2 mps 733 mmHg 50%
    14:00 +37°C° 0.1 mm 2 mps 732 mmHg 47%
    15:00 +37°C° 0 mm 2 mps 732 mmHg 49%
    16:00 +37°C° 0 mm 2 mps 732 mmHg 50%
    17:00 +36°C° 0 mm 2 mps 731 mmHg 52%
    18:00 +35°C° 0.6 mm 2 mps 731 mmHg 58%
    19:00 +33°C° 0.6 mm 3 mps 731 mmHg 64%
    20:00 +30°C° 0.6 mm 3 mps 732 mmHg 70%
    21:00 +29°C° 1.4 mm 3 mps 732 mmHg 73%
    22:00 +29°C° 1.4 mm 3 mps 732 mmHg 77%
    23:00 +28°C° 1.4 mm 3 mps 732 mmHg 80%

    Tomorrow, 17 July, Wednesday

    Time Temperature Precipitation Wind Pressure Humidity
    00:00 +28°C° 0.7 mm 2 mps 732 mmHg 81%
    01:00 +28°C° 0.7 mm 2 mps 732 mmHg 82%
    02:00 +28°C° 0.7 mm 2 mps 732 mmHg 83%
    03:00 +28°C° 0.2 mm 1 mps 732 mmHg 85%
    04:00 +28°C° 0.2 mm 1 mps 732 mmHg 86%
    05:00 +28°C° 0.2 mm 1 mps 732 mmHg 88%
    06:00 +28°C° 0.4 mm 1 mps 732 mmHg 83%
    07:00 +29°C° 0.4 mm 2 mps 732 mmHg 78%
    08:00 +30°C° 0.4 mm 2 mps 733 mmHg 73%
    09:00 +32°C° 0.2 mm 2 mps 733 mmHg 68%
    10:00 +34°C° 0.2 mm 2 mps 733 mmHg 63%
    11:00 +35°C° 0.2 mm 3 mps 733 mmHg 58%
    12:00 +36°C° 0 mm 2 mps 732 mmHg 55%
    13:00 +37°C° 0 mm 2 mps 732 mmHg 52%
    14:00 +36°C° 0 mm 1 mps 731 mmHg 49%
    15:00 +36°C° 0 mm 1 mps 731 mmHg 50%
    16:00 +37°C° 0 mm 2 mps 731 mmHg 51%
    17:00 +37°C° 0 mm 2 mps 731 mmHg 52%
    18:00 +35°C° 0.1 mm 2 mps 731 mmHg 57%
    19:00 +34°C° 0.1 mm 2 mps 731 mmHg 62%
    20:00 +32°C° 0.1 mm 2 mps 732 mmHg 67%
    21:00 +31°C° 0.8 mm 2 mps 732 mmHg 72%
    22:00 +30°C° 0.8 mm 1 mps 732 mmHg 76%
    23:00 +29°C° 0.8 mm 1 mps 732 mmHg 81%

    Day after tomorrow, 18 July, Thursday

    Time Temperature Precipitation Wind Pressure Humidity
    00:00 +29°C° 0.8 mm 1 mps 732 mmHg 82%
    01:00 +29°C° 0.8 mm 1 mps 732 mmHg 82%
    02:00 +29°C° 0.8 mm 1 mps 731 mmHg 83%
    03:00 +29°C° 0.1 mm 1 mps 731 mmHg 83%
    04:00 +29°C° 0.1 mm 1 mps 731 mmHg 82%
    05:00 +28°C° 0.1 mm 2 mps 731 mmHg 82%
    06:00 +30°C° 0.3 mm 1 mps 732 mmHg 76%
    07:00 +31°C° 0.3 mm 1 mps 732 mmHg 71%
    08:00 +32°C° 0.3 mm 1 mps 732 mmHg 65%
    09:00 +34°C° 1.7 mm 2 mps 732 mmHg 61%
    10:00 +36°C° 1.7 mm 2 mps 732 mmHg 57%
    11:00 +37°C° 1.7 mm 2 mps 732 mmHg 53%
    12:00 +37°C° 0.1 mm 2 mps 732 mmHg 53%
    13:00 +37°C° 0.1 mm 3 mps 732 mmHg 53%
    14:00 +37°C° 0.1 mm 3 mps 731 mmHg 53%
    15:00 +36°C° 0.1 mm 3 mps 731 mmHg 55%
    16:00 +36°C° 0.1 mm 2 mps 731 mmHg 57%
    17:00 +36°C° 0.1 mm 2 mps 731 mmHg 59%
    18:00 +35°C° 0 mm 2 mps 731 mmHg 62%
    19:00 +33°C° 0 mm 1 mps 731 mmHg 65%
    20:00 +32°C° 0 mm 1 mps 732 mmHg 68%
    21:00 +31°C° 0.1 mm 1 mps 732 mmHg 70%
    22:00 +31°C° 0.1 mm 1 mps 732 mmHg 72%
    23:00 +30°C° 0.1 mm 1 mps 732 mmHg 75%

    19 July, Friday

    Time Temperature Precipitation Wind Pressure Humidity
    00:00 +30°C° 0.1 mm 1 mps 731 mmHg 75%
    01:00 +30°C° 0.1 mm 1 mps 731 mmHg 76%
    02:00 +29°C° 0.1 mm 1 mps 731 mmHg 77%
    03:00 +29°C° 0.1 mm 1 mps 731 mmHg 77%
    04:00 +29°C° 0.1 mm 1 mps 731 mmHg 77%
    05:00 +29°C° 0.1 mm 1 mps 731 mmHg 76%
    06:00 +30°C° 0.4 mm 1 mps 732 mmHg 72%
    07:00 +32°C° 0.4 mm 1 mps 732 mmHg 68%
    08:00 +33°C° 0.4 mm 1 mps 733 mmHg 64%
    09:00 +34°C° 0.3 mm 1 mps 733 mmHg 60%
    10:00 +36°C° 0.3 mm 2 mps 733 mmHg 56%
    11:00 +38°C° 0.3 mm 2 mps 733 mmHg 51%
    12:00 +38°C° 0.6 mm 2 mps 732 mmHg 52%
    13:00 +37°C° 0.6 mm 3 mps 732 mmHg 52%
    14:00 +37°C° 0.6 mm 3 mps 732 mmHg 53%
    15:00 +37°C° 0.1 mm 3 mps 731 mmHg 54%
    16:00 +37°C° 0.1 mm 3 mps 731 mmHg 55%
    17:00 +37°C° 0.1 mm 3 mps 731 mmHg 56%
    18:00 +36°C° 0 mm 2 mps 731 mmHg 60%
    19:00 +35°C° 0 mm 2 mps 731 mmHg 63%
    20:00 +33°C° 0 mm 1 mps 732 mmHg 67%
    21:00 +32°C° 0.3 mm 2 mps 732 mmHg 70%
    22:00 +31°C° 0.3 mm 2 mps 732 mmHg 73%
    23:00 +30°C° 0.3 mm 2 mps 732 mmHg 76%

    20 July, Saturday

    Time Temperature Precipitation Wind Pressure Humidity
    00:00 +30°C° 0.1 mm 2 mps 732 mmHg 76%
    01:00 +30°C° 0.1 mm 1 mps 731 mmHg 76%
    02:00 +30°C° 0.1 mm 1 mps 731 mmHg 76%
    03:00 +30°C° 0 mm 1 mps 731 mmHg 76%
    04:00 +30°C° 0 mm 1 mps 731 mmHg 77%
    05:00 +30°C° 0 mm 1 mps 732 mmHg 77%
    06:00 +31°C° 0 mm 1 mps 732 mmHg 71%
    07:00 +32°C° 0 mm 1 mps 732 mmHg 66%
    08:00 +34°C° 0 mm 1 mps 732 mmHg 60%
    09:00 +35°C° 0 mm 1 mps 732 mmHg 56%
    10:00 +37°C° 0 mm 1 mps 732 mmHg 51%
    11:00 +39°C° 0 mm 1 mps 732 mmHg 46%
    12:00 +40°C° 0 mm 2 mps 732 mmHg 45%
    13:00 +40°C° 0 mm 3 mps 732 mmHg 44%
    14:00 +41°C° 0 mm 4 mps 731 mmHg 43%
    15:00 +41°C° 0 mm 4 mps 731 mmHg 44%
    16:00 +41°C° 0 mm 4 mps 731 mmHg 45%
    17:00 +40°C° 0 mm 3 mps 730 mmHg 46%
    18:00 +38°C° 0 mm 2 mps 730 mmHg 50%
    19:00 +37°C° 0 mm 2 mps 731 mmHg 53%
    20:00 +35°C° 0 mm 1 mps 731 mmHg 57%
    21:00 +34°C° 0.1 mm 1 mps 731 mmHg 59%
    22:00 +34°C° 0.1 mm 1 mps 731 mmHg 61%
    23:00 +33°C° 0.1 mm 1 mps 731 mmHg 63%

    21 July, Sunday

    Time Temperature Precipitation Wind Pressure Humidity
    00:00 +33°C° 0 mm 1 mps 730 mmHg 65%
    01:00 +33°C° 0 mm 1 mps 730 mmHg 66%
    02:00 +30°C° 0 mm 0 mps 730 mmHg 68%
    03:00 +32°C° 0 mm 1 mps 730 mmHg 69%
    04:00 +32°C° 0 mm 1 mps 730 mmHg 70%
    05:00 +31°C° 0 mm 1 mps 730 mmHg 70%
    06:00 +32°C° 0 mm 1 mps 730 mmHg 66%
    07:00 +34°C° 0 mm 1 mps 730 mmHg 61%
    08:00 +35°C° 0 mm 1 mps 730 mmHg 57%
    09:00 +37°C° 0 mm 2 mps 730 mmHg 51%
    10:00 +39°C° 0 mm 3 mps 730 mmHg 46%
    11:00 +42°C° 0 mm 4 mps 730 mmHg 41%
    12:00 +42°C° 0 mm 5 mps 730 mmHg 39%
    13:00 +43°C° 0 mm 5 mps 729 mmHg 38%
    14:00 +44°C° 0 mm 6 mps 729 mmHg 37%
    15:00 +43°C° 0 mm 5 mps 728 mmHg 38%
    16:00 +43°C° 0 mm 5 mps 728 mmHg 39%
    17:00 +43°C° 0 mm 4 mps 728 mmHg 40%
    18:00 +40°C° 0 mm 3 mps 728 mmHg 43%
    19:00 +38°C° 0 mm 3 mps 728 mmHg 46%
    20:00 +36°C° 0 mm 3 mps 728 mmHg 49%
    21:00 +36°C° 0 mm 2 mps 729 mmHg 50%
    22:00 +35°C° 0 mm 2 mps 729 mmHg 51%
    23:00 +34°C° 0 mm 1 mps 729 mmHg 52%
    Show more